| time (UTC) | temp C | wind direction | speed KPH | gust KPH | rain 1hr cm | rain 24hr cm | rain mn cm | humidity % | barometer mb |
| 20260502195054 | 15 | 123 | 3.2 | 9.7 | 0.00 | 0.00 | 0.00 | 47 | 1011.6 |
| 20260502194555 | 15 | 36 | 4.8 | 9.7 | 0.00 | 0.00 | 0.00 | 47 | 1011.6 |
| 20260502194052 | 15 | 71 | 3.2 | 12.9 | 0.00 | 0.00 | 0.00 | 48 | 1011.6 |
| 20260502193552 | 15 | 17 | 3.2 | 12.9 | 0.00 | 0.00 | 0.00 | 49 | 1011.9 |
| 20260502193055 | 15 | 17 | 3.2 | 12.9 | 0.00 | 0.00 | 0.00 | 49 | 1011.8 |
| 20260502192552 | 15 | 38 | 4.8 | 14.5 | 0.00 | 0.00 | 0.00 | 49 | 1011.8 |
| 20260502192055 | 15 | 5 | 4.8 | 14.5 | 0.00 | 0.00 | 0.00 | 49 | 1011.9 |
| 20260502191603 | 15 | 360 | 1.6 | 12.9 | 0.00 | 0.00 | 0.00 | 49 | 1011.8 |
| 20260502191055 | 15 | 360 | 3.2 | 12.9 | 0.00 | 0.00 | 0.00 | 49 | 1011.9 |
| 20260502190556 | 15 | 287 | 3.2 | 12.9 | 0.00 | 0.00 | 0.00 | 49 | 1012.0 |
| 20260502190100 | 15 | 34 | 4.8 | 12.9 | 0.00 | 0.00 | 0.00 | 50 | 1012.2 |
| 20260502185551 | 15 | 320 | 3.2 | 12.9 | 0.00 | 0.00 | 0.00 | 49 | 1012.1 |
| 20260502185053 | 15 | 31 | 4.8 | 12.9 | 0.00 | 0.00 | 0.00 | 50 | 1012.3 |
| 20260502184555 | 15 | 32 | 3.2 | 9.7 | 0.00 | 0.00 | 0.00 | 50 | 1012.2 |
| 20260502184051 | 15 | 360 | 4.8 | 9.7 | 0.00 | 0.00 | 0.00 | 50 | 1012.1 |
| 20260502183556 | 15 | 348 | 4.8 | 12.9 | 0.00 | 0.00 | 0.00 | 50 | 1012.1 |
| 20260502183056 | 15 | 103 | 4.8 | 12.9 | 0.00 | 0.00 | 0.00 | 50 | 1012.1 |
| 20260502182552 | 15 | 39 | 4.8 | 12.9 | 0.00 | 0.00 | 0.00 | 51 | 1012.3 |
| 20260502182052 | 15 | 105 | 3.2 | 12.9 | 0.00 | 0.00 | 0.00 | 51 | 1012.3 |
| 20260502181555 | 15 | 5 | 1.6 | 14.5 | 0.00 | 0.00 | 0.00 | 51 | 1012.4 |
| 20260502181052 | 15 | 29 | 4.8 | 17.7 | 0.00 | 0.00 | 0.00 | 51 | 1012.6 |
| 20260502180554 | 15 | 26 | 6.4 | 17.7 | 0.00 | 0.00 | 0.00 | 51 | 1012.8 |
| 20260502170106 | 13 | 355 | 4.8 | 12.9 | 0.00 | 0.00 | 0.00 | 55 | 1014.0 |
| 20260502164052 | 13 | 34 | 1.6 | 12.9 | 0.00 | 0.00 | 0.00 | 55 | 1013.9 |
| 20260502163552 | 13 | 338 | 4.8 | 12.9 | 0.00 | 0.00 | 0.00 | 55 | 1013.8 |
| 20260502163058 | 13 | 20 | 4.8 | 16.1 | 0.00 | 0.00 | 0.00 | 56 | 1013.8 |
| 20260502162552 | 13 | 348 | 6.4 | 17.7 | 0.00 | 0.00 | 0.00 | 56 | 1013.8 |
| 20260502162051 | 13 | 51 | 8.0 | 17.7 | 0.00 | 0.00 | 0.00 | 55 | 1013.7 |
| 20260502161605 | 13 | 56 | 8.0 | 16.1 | 0.00 | 0.00 | 0.00 | 55 | 1013.7 |
| 20260502161052 | 13 | 339 | 6.4 | 14.5 | 0.00 | 0.00 | 0.00 | 56 | 1013.7 |
| 20260502160554 | 13 | 59 | 4.8 | 16.1 | 0.00 | 0.00 | 0.00 | 57 | 1013.7 |
| 20260502152055 | 13 | 351 | 4.8 | 19.3 | 0.00 | 0.00 | 0.00 | 62 | 1014.1 |
| 20260502151612 | 13 | 31 | 6.4 | 19.3 | 0.00 | 0.00 | 0.00 | 62 | 1013.8 |
| 20260502151053 | 13 | 61 | 8.0 | 19.3 | 0.00 | 0.00 | 0.00 | 62 | 1013.6 |
| 20260502150554 | 13 | 342 | 6.4 | 12.9 | 0.00 | 0.00 | 0.00 | 63 | 1013.8 |
| 20260502130552 | 12 | 58 | 4.8 | 19.3 | 0.00 | 0.00 | 0.00 | 76 | 1013.5 |
| 20260502130106 | 12 | 88 | 3.2 | 19.3 | 0.00 | 0.00 | 0.00 | 76 | 1013.5 |
| 20260502123553 | 11 | 41 | 4.8 | 12.9 | 0.00 | 0.00 | 0.00 | 79 | 1013.3 |
| 20260502123057 | 11 | 57 | 3.2 | 14.5 | 0.00 | 0.00 | 0.00 | 80 | 1013.3 |
| 20260502122553 | 11 | 0 | 4.8 | 14.5 | 0.00 | 0.00 | 0.00 | 80 | 1013.3 |
| 20260502122052 | 11 | 0 | 1.6 | 6.4 | 0.00 | 0.00 | 0.00 | 81 | 1013.2 |
| 20260502121557 | 11 | 47 | 1.6 | 6.4 | 0.00 | 0.00 | 0.00 | 81 | 1013.0 |
| 20260502121052 | 11 | 47 | 3.2 | 6.4 | 0.00 | 0.00 | 0.00 | 81 | 1012.9 |
| 20260502120552 | 11 | 0 | 0.0 | 4.8 | 0.00 | 0.00 | 0.00 | 82 | 1012.9 |
| 20260502115553 | 11 | 0 | 0.0 | 8.0 | 0.00 | 0.00 | 0.00 | 82 | 1012.8 |
| 20260502115052 | 11 | 31 | 1.6 | 8.0 | 0.00 | 0.00 | 0.00 | 82 | 1012.9 |
| 20260502114557 | 10 | 29 | 0.0 | 8.0 | 0.00 | 0.00 | 0.00 | 83 | 1012.9 |
| 20260502114052 | 10 | 53 | 1.6 | 6.4 | 0.00 | 0.00 | 0.00 | 83 | 1012.9 |
| 20260502113552 | 10 | 75 | 0.0 | 6.4 | 0.00 | 0.00 | 0.00 | 84 | 1012.9 |
| 20260502113058 | 10 | 74 | 1.6 | 6.4 | 0.00 | 0.00 | 0.00 | 84 | 1013.0 |
| 20260502112554 | 10 | 149 | 0.0 | 4.8 | 0.00 | 0.00 | 0.00 | 85 | 1013.0 |
| 20260502112051 | 10 | 0 | 0.0 | 4.8 | 0.00 | 0.00 | 0.00 | 85 | 1012.9 |
| 20260502111557 | 10 | 0 | 0.0 | 4.8 | 0.00 | 0.00 | 0.00 | 86 | 1012.9 |
| 20260502111053 | 10 | 189 | 0.0 | 4.8 | 0.00 | 0.00 | 0.00 | 86 | 1012.9 |
| 20260502110551 | 10 | 0 | 0.0 | 4.8 | 0.00 | 0.00 | 0.00 | 86 | 1012.9 |
| 20260502105554 | 10 | 0 | 0.0 | 4.8 | 0.00 | 0.00 | 0.00 | 86 | 1013.1 |
| 20260502105053 | 9 | 0 | 0.0 | 0.0 | 0.00 | 0.00 | 0.00 | 86 | 1013.0 |
| 20260502104557 | 9 | 0 | 0.0 | 0.0 | 0.00 | 0.00 | 0.00 | 86 | 1012.9 |
| 20260502104052 | 9 | 0 | 0.0 | 0.0 | 0.00 | 0.00 | 0.00 | 86 | 1013.0 |
| 20260502103554 | 9 | 0 | 0.0 | 0.0 | 0.00 | 0.00 | 0.00 | 86 | 1013.0 |
| 20260502103106 | 9 | 0 | 0.0 | 0.0 | 0.00 | 0.00 | 0.00 | 85 | 1012.7 |
| 20260502102552 | 9 | 0 | 0.0 | 0.0 | 0.00 | 0.00 | 0.00 | 85 | 1012.6 |
| 20260502102051 | 9 | 0 | 0.0 | 0.0 | 0.00 | 0.00 | 0.00 | 85 | 1012.6 |
| 20260502101613 | 9 | 0 | 0.0 | 0.0 | 0.00 | 0.00 | 0.00 | 85 | 1012.3 |
| 20260502101051 | 9 | 0 | 0.0 | 0.0 | 0.00 | 0.00 | 0.00 | 85 | 1012.2 |
| 20260502100553 | 9 | 0 | 0.0 | 0.0 | 0.00 | 0.00 | 0.00 | 85 | 1012.2 |
| 20260502100106 | 10 | 0 | 0.0 | 0.0 | 0.00 | 0.00 | 0.00 | 85 | 1012.3 |
| 20260502091053 | 10 | 0 | 0.0 | 0.0 | 0.00 | 0.00 | 0.00 | 84 | 1012.0 |
| 20260502090552 | 10 | 0 | 0.0 | 0.0 | 0.00 | 0.00 | 0.00 | 84 | 1012.0 |
| 20260502090114 | 10 | 0 | 0.0 | 0.0 | 0.00 | 0.00 | 0.00 | 84 | 1012.1 |
| 20260502071053 | 10 | 0 | 0.0 | 1.6 | 0.00 | 0.00 | 0.00 | 81 | 1011.6 |
| 20260502070554 | 10 | 0 | 0.0 | 3.2 | 0.00 | 0.00 | 0.00 | 81 | 1011.6 |
| 20260502070110 | 10 | 0 | 0.0 | 3.2 | 0.00 | 0.00 | 0.00 | 81 | 1011.8 |
| 20260502065554 | 10 | 190 | 0.0 | 3.2 | 0.00 | 0.00 | 0.00 | 81 | 1011.6 |
| 20260502065054 | 10 | 190 | 0.0 | 3.2 | 0.00 | 0.00 | 0.00 | 81 | 1011.7 |
| 20260502064618 | 10 | 0 | 0.0 | 0.0 | 0.00 | 0.00 | 0.00 | 81 | 1011.6 |
| 20260502064053 | 10 | 0 | 0.0 | 0.0 | 0.00 | 0.00 | 0.00 | 80 | 1011.5 |
| 20260502063553 | 10 | 0 | 0.0 | 0.0 | 0.00 | 0.00 | 0.00 | 80 | 1011.3 |
| 20260502063057 | 10 | 0 | 0.0 | 0.0 | 0.00 | 0.00 | 0.00 | 80 | 1011.5 |
| 20260502062552 | 10 | 0 | 0.0 | 0.0 | 0.00 | 0.00 | 0.00 | 80 | 1011.4 |
| 20260502062052 | 10 | 0 | 0.0 | 0.0 | 0.00 | 0.00 | 0.00 | 79 | 1011.5 |
| 20260502061552 | 10 | 0 | 0.0 | 0.0 | 0.00 | 0.00 | 0.00 | 78 | 1011.7 |
| 20260502061053 | 10 | 0 | 0.0 | 0.0 | 0.00 | 0.00 | 0.00 | 78 | 1011.9 |
| 20260502060552 | 10 | 0 | 0.0 | 0.0 | 0.00 | 0.00 | 0.00 | 78 | 1011.8 |
| 20260502060058 | 10 | 0 | 0.0 | 0.0 | 0.00 | 0.00 | 0.00 | 77 | 1011.9 |
| 20260502055553 | 10 | 0 | 0.0 | 0.0 | 0.00 | 0.00 | 0.00 | 77 | 1011.9 |
| 20260502055052 | 10 | 0 | 0.0 | 0.0 | 0.00 | 0.00 | 0.00 | 77 | 1012.0 |
| 20260502054600 | 10 | 0 | 0.0 | 0.0 | 0.00 | 0.00 | 0.00 | 77 | 1012.0 |
| 20260502054056 | 11 | 0 | 0.0 | 0.0 | 0.00 | 0.00 | 0.00 | 77 | 1012.1 |
| 20260502053556 | 11 | 0 | 0.0 | 0.0 | 0.00 | 0.00 | 0.00 | 77 | 1012.3 |
| 20260502053056 | 11 | 0 | 0.0 | 0.0 | 0.00 | 0.00 | 0.00 | 76 | 1012.3 |
| 20260502052551 | 11 | 0 | 0.0 | 0.0 | 0.00 | 0.00 | 0.00 | 76 | 1012.3 |
| 20260502052053 | 11 | 0 | 0.0 | 0.0 | 0.00 | 0.00 | 0.00 | 76 | 1012.3 |
| 20260502051556 | 11 | 0 | 0.0 | 0.0 | 0.00 | 0.00 | 0.00 | 76 | 1012.3 |
| 20260502051053 | 11 | 0 | 0.0 | 0.0 | 0.00 | 0.00 | 0.00 | 75 | 1012.4 |
| 20260502050553 | 11 | 0 | 0.0 | 0.0 | 0.00 | 0.00 | 0.00 | 76 | 1012.4 |
| 20260502050054 | 11 | 0 | 0.0 | 0.0 | 0.00 | 0.00 | 0.00 | 75 | 1012.6 |
| 20260502045553 | 11 | 0 | 0.0 | 0.0 | 0.00 | 0.00 | 0.00 | 75 | 1012.7 |
| 20260502045053 | 11 | 0 | 0.0 | 1.6 | 0.00 | 0.00 | 0.00 | 74 | 1012.6 |
| 20260502044559 | 11 | 0 | 0.0 | 1.6 | 0.00 | 0.00 | 0.00 | 74 | 1012.6 |
| 20260502044050 | 11 | 0 | 0.0 | 1.6 | 0.00 | 0.00 | 0.00 | 74 | 1012.6 |
| 20260502043553 | 12 | 0 | 0.0 | 4.8 | 0.00 | 0.00 | 0.00 | 74 | 1012.7 |
| 20260502043058 | 12 | 0 | 0.0 | 6.4 | 0.00 | 0.00 | 0.00 | 74 | 1012.6 |
| 20260502042556 | 12 | 0 | 0.0 | 6.4 | 0.00 | 0.00 | 0.00 | 74 | 1012.6 |
| 20260502042052 | 12 | 190 | 0.0 | 6.4 | 0.00 | 0.00 | 0.00 | 74 | 1012.6 |
| 20260502041604 | 12 | 200 | 0.0 | 6.4 | 0.00 | 0.00 | 0.00 | 73 | 1012.7 |
| 20260502041052 | 12 | 0 | 1.6 | 6.4 | 0.00 | 0.00 | 0.00 | 73 | 1012.6 |
| 20260502040551 | 12 | 200 | 0.0 | 6.4 | 0.00 | 0.00 | 0.00 | 73 | 1012.5 |
| 20260502040057 | 12 | 200 | 1.6 | 6.4 | 0.00 | 0.00 | 0.00 | 73 | 1012.5 |
| 20260502035552 | 12 | 200 | 1.6 | 6.4 | 0.00 | 0.00 | 0.00 | 72 | 1012.5 |
| 20260502035053 | 12 | 0 | 1.6 | 11.3 | 0.00 | 0.00 | 0.00 | 72 | 1012.5 |
| 20260502034555 | 12 | 239 | 1.6 | 14.5 | 0.00 | 0.00 | 0.00 | 72 | 1012.7 |
| 20260502034054 | 12 | 251 | 1.6 | 14.5 | 0.00 | 0.00 | 0.00 | 72 | 1012.6 |
| 20260502033552 | 12 | 0 | 1.6 | 9.7 | 0.00 | 0.00 | 0.00 | 71 | 1012.9 |
| 20260502033101 | 12 | 189 | 0.0 | 9.7 | 0.00 | 0.00 | 0.00 | 71 | 1012.7 |
| 20260502032553 | 12 | 188 | 3.2 | 9.7 | 0.00 | 0.00 | 0.00 | 70 | 1012.6 |
| 20260502032055 | 12 | 0 | 0.0 | 6.4 | 0.00 | 0.00 | 0.00 | 70 | 1012.7 |
| 20260502031559 | 12 | 186 | 0.0 | 6.4 | 0.00 | 0.00 | 0.00 | 70 | 1012.5 |
| 20260502031053 | 12 | 186 | 1.6 | 9.7 | 0.00 | 0.00 | 0.00 | 69 | 1012.4 |
| 20260502030553 | 12 | 184 | 1.6 | 9.7 | 0.00 | 0.00 | 0.00 | 69 | 1012.3 |
| 20260502030058 | 12 | 182 | 1.6 | 8.0 | 0.00 | 0.00 | 0.00 | 68 | 1012.2 |
| 20260502025552 | 13 | 190 | 0.0 | 4.8 | 0.00 | 0.00 | 0.00 | 68 | 1012.4 |
| 20260502025057 | 13 | 190 | 0.0 | 6.4 | 0.00 | 0.00 | 0.00 | 68 | 1012.1 |
| 20260502024608 | 13 | 190 | 1.6 | 6.4 | 0.00 | 0.00 | 0.00 | 68 | 1012.1 |
| 20260502024055 | 13 | 190 | 0.0 | 9.7 | 0.00 | 0.00 | 0.00 | 68 | 1012.3 |
| 20260502023553 | 13 | 190 | 1.6 | 9.7 | 0.00 | 0.00 | 0.00 | 67 | 1012.2 |
| 20260502023140 | 13 | 192 | 1.6 | 8.0 | 0.00 | 0.00 | 0.00 | 67 | 1012.3 |
| 20260502022556 | 13 | 192 | 1.6 | 8.0 | 0.00 | 0.00 | 0.00 | 66 | 1012.3 |
| 20260502022054 | 13 | 181 | 1.6 | 6.4 | 0.00 | 0.00 | 0.00 | 65 | 1012.3 |
| 20260502021556 | 13 | 181 | 0.0 | 6.4 | 0.00 | 0.00 | 0.00 | 65 | 1012.2 |
| 20260502021053 | 13 | 181 | 0.0 | 8.0 | 0.00 | 0.00 | 0.00 | 65 | 1012.3 |
| 20260502020554 | 13 | 181 | 0.0 | 9.7 | 0.00 | 0.00 | 0.00 | 64 | 1012.2 |
| 20260502020059 | 13 | 175 | 1.6 | 9.7 | 0.00 | 0.00 | 0.00 | 64 | 1012.2 |
| 20260502015550 | 13 | 175 | 1.6 | 16.1 | 0.00 | 0.00 | 0.00 | 64 | 1012.3 |
| 20260502015054 | 13 | 180 | 1.6 | 16.1 | 0.00 | 0.00 | 0.00 | 63 | 1012.3 |
| 20260502014557 | 13 | 178 | 3.2 | 16.1 | 0.00 | 0.00 | 0.00 | 63 | 1012.2 |
| 20260502014052 | 13 | 202 | 1.6 | 8.0 | 0.00 | 0.00 | 0.00 | 62 | 1012.1 |
| 20260502013553 | 13 | 192 | 1.6 | 9.7 | 0.00 | 0.00 | 0.00 | 62 | 1012.0 |
| 20260502013105 | 14 | 194 | 1.6 | 11.3 | 0.00 | 0.00 | 0.00 | 61 | 1011.9 |
| 20260502012552 | 14 | 199 | 1.6 | 14.5 | 0.00 | 0.00 | 0.00 | 61 | 1011.9 |
| 20260502012054 | 14 | 0 | 1.6 | 14.5 | 0.00 | 0.00 | 0.00 | 60 | 1011.9 |
| 20260502011559 | 13 | 200 | 1.6 | 11.3 | 0.00 | 0.00 | 0.00 | 60 | 1011.7 |
| 20260502011053 | 13 | 192 | 1.6 | 9.7 | 0.00 | 0.00 | 0.00 | 59 | 1011.5 |
| 20260502010553 | 13 | 193 | 1.6 | 9.7 | 0.00 | 0.00 | 0.00 | 59 | 1011.5 |
| 20260502010058 | 14 | 193 | 1.6 | 8.0 | 0.00 | 0.00 | 0.00 | 58 | 1011.5 |
| 20260502005553 | 14 | 193 | 0.0 | 3.2 | 0.00 | 0.00 | 0.00 | 56 | 1011.4 |
| 20260502005053 | 14 | 0 | 0.0 | 1.6 | 0.00 | 0.00 | 0.00 | 55 | 1011.4 |
| 20260502004554 | 15 | 0 | 0.0 | 1.6 | 0.00 | 0.00 | 0.00 | 54 | 1011.3 |
| 20260502004054 | 15 | 0 | 0.0 | 1.6 | 0.00 | 0.00 | 0.00 | 53 | 1011.1 |
| 20260502003552 | 15 | 0 | 0.0 | 1.6 | 0.00 | 0.00 | 0.00 | 52 | 1011.0 |
| 20260502003056 | 15 | 0 | 0.0 | 1.6 | 0.00 | 0.00 | 0.00 | 52 | 1011.0 |
| 20260502002555 | 16 | 0 | 0.0 | 0.0 | 0.00 | 0.00 | 0.00 | 51 | 1011.0 |
| 20260502002052 | 16 | 0 | 0.0 | 1.6 | 0.00 | 0.00 | 0.00 | 51 | 1010.9 |
| 20260502001629 | 16 | 0 | 0.0 | 1.6 | 0.00 | 0.00 | 0.00 | 50 | 1010.9 |
| 20260502001052 | 16 | 0 | 0.0 | 4.8 | 0.00 | 0.00 | 0.00 | 50 | 1010.9 |
| 20260502000552 | 16 | 0 | 0.0 | 4.8 | 0.00 | 0.00 | 0.00 | 49 | 1011.1 |
| 20260502000115 | 16 | 0 | 0.0 | 6.4 | 0.00 | 0.00 | 0.00 | 49 | 1011.0 |
| 20260501235557 | 17 | 0 | 0.0 | 6.4 | 0.00 | 0.00 | 0.00 | 49 | 1011.0 |
| 20260501235053 | 17 | 193 | 1.6 | 6.4 | 0.00 | 0.00 | 0.00 | 49 | 1010.8 |
| 20260501234559 | 17 | 193 | 1.6 | 8.0 | 0.00 | 0.00 | 0.00 | 48 | 1010.9 |
| 20260501234053 | 17 | 0 | 1.6 | 8.0 | 0.00 | 0.00 | 0.00 | 47 | 1010.9 |
| 20260501233551 | 17 | 190 | 0.0 | 9.7 | 0.00 | 0.00 | 0.00 | 47 | 1010.8 |
| 20260501233057 | 17 | 0 | 3.2 | 11.3 | 0.00 | 0.00 | 0.00 | 46 | 1010.8 |
| 20260501232552 | 17 | 193 | 1.6 | 11.3 | 0.00 | 0.00 | 0.00 | 45 | 1010.8 |
| 20260501232052 | 18 | 184 | 4.8 | 11.3 | 0.00 | 0.00 | 0.00 | 45 | 1010.8 |
| 20260501231604 | 18 | 200 | 3.2 | 11.3 | 0.00 | 0.00 | 0.00 | 44 | 1010.8 |
| 20260501231053 | 18 | 192 | 0.0 | 8.0 | 0.00 | 0.00 | 0.00 | 43 | 1010.8 |
| 20260501230553 | 18 | 191 | 1.6 | 8.0 | 0.00 | 0.00 | 0.00 | 42 | 1010.8 |
| 20260501230056 | 18 | 213 | 0.0 | 6.4 | 0.00 | 0.00 | 0.00 | 42 | 1010.8 |
| 20260501225556 | 18 | 0 | 0.0 | 6.4 | 0.00 | 0.00 | 0.00 | 42 | 1010.8 |
| 20260501225054 | 18 | 246 | 3.2 | 12.9 | 0.00 | 0.00 | 0.00 | 41 | 1010.9 |
| 20260501224607 | 18 | 186 | 3.2 | 12.9 | 0.00 | 0.00 | 0.00 | 40 | 1011.0 |
| 20260501224049 | 18 | 0 | 1.6 | 9.7 | 0.00 | 0.00 | 0.00 | 40 | 1011.0 |
| 20260501223553 | 19 | 177 | 1.6 | 12.9 | 0.00 | 0.00 | 0.00 | 41 | 1011.0 |
| 20260501223054 | 19 | 177 | 3.2 | 12.9 | 0.00 | 0.00 | 0.00 | 40 | 1011.1 |
| 20260501222557 | 19 | 0 | 4.8 | 17.7 | 0.00 | 0.00 | 0.00 | 40 | 1011.1 |
| 20260501222052 | 19 | 0 | 3.2 | 17.7 | 0.00 | 0.00 | 0.00 | 41 | 1011.2 |
| 20260501221556 | 20 | 190 | 4.8 | 19.3 | 0.00 | 0.00 | 0.00 | 40 | 1011.3 |
| 20260501221053 | 20 | 128 | 1.6 | 19.3 | 0.00 | 0.00 | 0.00 | 41 | 1011.2 |
| 20260501220554 | 20 | 169 | 3.2 | 14.5 | 0.00 | 0.00 | 0.00 | 40 | 1011.2 |
| 20260501220059 | 20 | 229 | 3.2 | 14.5 | 0.00 | 0.00 | 0.00 | 41 | 1011.4 |
| 20260501215552 | 20 | 218 | 3.2 | 14.5 | 0.00 | 0.00 | 0.00 | 40 | 1011.1 |
| 20260501215053 | 20 | 183 | 3.2 | 12.9 | 0.00 | 0.00 | 0.00 | 40 | 1011.2 |
| 20260501214600 | 20 | 143 | 3.2 | 14.5 | 0.00 | 0.00 | 0.00 | 40 | 1011.1 |
| 20260501214054 | 20 | 205 | 3.2 | 14.5 | 0.00 | 0.00 | 0.00 | 39 | 1011.1 |
| 20260501213551 | 20 | 221 | 3.2 | 12.9 | 0.00 | 0.00 | 0.00 | 39 | 1011.1 |
| 20260501213058 | 20 | 178 | 1.6 | 11.3 | 0.00 | 0.00 | 0.00 | 39 | 1011.1 |
| 20260501212552 | 20 | 192 | 3.2 | 11.3 | 0.00 | 0.00 | 0.00 | 38 | 1011.1 |
| 20260501212049 | 20 | 211 | 3.2 | 11.3 | 0.00 | 0.00 | 0.00 | 38 | 1011.2 |
| 20260501211555 | 20 | 190 | 4.8 | 12.9 | 0.00 | 0.00 | 0.00 | 37 | 1011.1 |
| 20260501211052 | 20 | 193 | 3.2 | 12.9 | 0.00 | 0.00 | 0.00 | 36 | 1011.0 |
| 20260501210552 | 20 | 176 | 4.8 | 12.9 | 0.00 | 0.00 | 0.00 | 37 | 1011.3 |
| 20260501210101 | 20 | 202 | 3.2 | 14.5 | 0.00 | 0.00 | 0.00 | 38 | 1011.1 |
| 20260501205555 | 20 | 148 | 6.4 | 16.1 | 0.00 | 0.00 | 0.00 | 38 | 1011.2 |
| 20260501205052 | 20 | 213 | 3.2 | 16.1 | 0.00 | 0.00 | 0.00 | 39 | 1011.3 |
| 20260501204557 | 20 | 248 | 3.2 | 14.5 | 0.00 | 0.00 | 0.00 | 38 | 1011.3 |
| 20260501204052 | 20 | 190 | 6.4 | 17.7 | 0.00 | 0.00 | 0.00 | 39 | 1011.5 |
| 20260501203553 | 20 | 191 | 3.2 | 19.3 | 0.00 | 0.00 | 0.00 | 38 | 1011.6 |
| 20260501203100 | 20 | 193 | 3.2 | 19.3 | 0.00 | 0.00 | 0.00 | 39 | 1011.6 |
| 20260501202553 | 20 | 124 | 8.0 | 17.7 | 0.00 | 0.00 | 0.00 | 38 | 1011.7 |
| 20260501202053 | 20 | 150 | 6.4 | 16.1 | 0.00 | 0.00 | 0.00 | 38 | 1011.8 |
| 20260501201558 | 21 | 187 | 3.2 | 12.9 | 0.00 | 0.00 | 0.00 | 39 | 1011.9 |
| 20260501201053 | 20 | 184 | 3.2 | 9.7 | 0.00 | 0.00 | 0.00 | 39 | 1012.0 |
| 20260501200552 | 20 | 143 | 3.2 | 14.5 | 0.00 | 0.00 | 0.00 | 39 | 1011.9 |
| 20260501200057 | 21 | 290 | 4.8 | 14.5 | 0.00 | 0.00 | 0.00 | 39 | 1012.1 |
| 20260501195549 | 20 | 238 | 3.2 | 11.3 | 0.00 | 0.00 | 0.00 | 39 | 1012.2 |